{"data":{"norad_id":65506,"epoch":"2026-05-25T01:18:52.342272Z","epoch_age_seconds":73540,"freshness":"FRESH","line1":"1 65506U 25198Q   26145.05477248  .00033736  00000+0  10054-2 0  9995","line2":"2 65506  53.1590 275.4586 0001263  68.0282 292.0855 15.34390633 40329","mean_motion":15.34390633,"eccentricity":0.0001263,"inclination_deg":53.159,"raan_deg":275.4586,"arg_perigee_deg":68.0282,"mean_anomaly_deg":292.0855,"bstar":0.0010054,"rev_number":4032,"period_min":93.84833099408,"perigee_km":461.86707940811,"apogee_km":463.59508268538,"semimajor_km":6840.8680810467,"source":"CELESTRAK","updated_at":"2026-05-25T13:38:20.842608Z"}}